| time (UTC) | temp F | wind direction | speed MPH | gust MPH | rain 1hr in | rain 24hr in | rain mn in | humidity % | barometer mb |
| 20260902233154 | 74 | 259 | 10.0 | 10.0 | 0.00 | 0.00 | 0.00 | 77 | 1014.9 |
| 20260902232653 | 74 | 229 | 8.0 | 10.0 | 0.00 | 0.00 | 0.00 | 78 | 1014.9 |
| 20260902232153 | 75 | 254 | 11.0 | 14.0 | 0.00 | 0.00 | 0.00 | 76 | 1014.9 |
| 20260902231647 | 75 | 176 | 8.0 | 10.0 | 0.00 | 0.00 | 0.00 | 75 | 1014.6 |
| 20260902231142 | 75 | 218 | 7.0 | 8.0 | 0.00 | 0.00 | 0.00 | 76 | 1014.9 |
| 20260902230638 | 75 | 213 | 7.0 | 9.0 | 0.00 | 0.00 | 0.00 | 76 | 1014.9 |
| 20260902230136 | 75 | 252 | 5.0 | 10.0 | 0.00 | 0.00 | 0.00 | 76 | 1014.9 |
| 20260902225632 | 75 | 264 | 7.0 | 9.0 | 0.00 | 0.00 | 0.00 | 75 | 1014.9 |
| 20260902225131 | 76 | 219 | 3.0 | 5.0 | 0.00 | 0.00 | 0.00 | 74 | 1014.9 |
| 20260902224629 | 76 | 231 | 11.0 | 11.0 | 0.00 | 0.00 | 0.00 | 73 | 1014.9 |
| 20260902224125 | 76 | 245 | 6.0 | 8.0 | 0.00 | 0.00 | 0.00 | 72 | 1014.9 |
| 20260902223621 | 77 | 229 | 6.0 | 9.0 | 0.00 | 0.00 | 0.00 | 70 | 1014.9 |
| 20260902223120 | 77 | 238 | 7.0 | 8.0 | 0.00 | 0.00 | 0.00 | 70 | 1014.9 |
| 20260902222619 | 76 | 204 | 7.0 | 9.0 | 0.00 | 0.00 | 0.00 | 70 | 1015.2 |
| 20260902222119 | 77 | 233 | 10.0 | 13.0 | 0.00 | 0.00 | 0.00 | 68 | 1015.6 |
| 20260902221613 | 77 | 239 | 11.0 | 11.0 | 0.00 | 0.00 | 0.00 | 68 | 1014.9 |
| 20260902221108 | 76 | 236 | 7.0 | 8.0 | 0.00 | 0.00 | 0.00 | 66 | 1015.2 |
| 20260902220604 | 77 | 242 | 10.0 | 11.0 | 0.00 | 0.00 | 0.00 | 65 | 1015.2 |
| 20260902220058 | 77 | 228 | 7.0 | 9.0 | 0.00 | 0.00 | 0.00 | 61 | 1015.6 |
| 20260902215554 | 77 | 154 | 6.0 | 7.0 | 0.00 | 0.00 | 0.00 | 60 | 1015.6 |
| 20260902215049 | 77 | 200 | 5.0 | 7.0 | 0.00 | 0.00 | 0.00 | 58 | 1015.6 |
| 20260902214544 | 77 | 257 | 13.0 | 15.0 | 0.00 | 0.00 | 0.00 | 62 | 1015.6 |
| 20260902214043 | 77 | 210 | 2.0 | 3.0 | 0.00 | 0.00 | 0.00 | 63 | 1015.6 |
| 20260902213539 | 78 | 275 | 6.0 | 8.0 | 0.00 | 0.00 | 0.00 | 58 | 1015.9 |
| 20260902213038 | 76 | 212 | 7.0 | 10.0 | 0.00 | 0.00 | 0.00 | 61 | 1015.6 |
| 20260902212534 | 77 | 274 | 6.0 | 9.0 | 0.00 | 0.00 | 0.00 | 62 | 1015.9 |
| 20260902212030 | 75 | 231 | 7.0 | 10.0 | 0.00 | 0.00 | 0.00 | 67 | 1015.6 |
| 20260902211526 | 76 | 236 | 6.0 | 8.0 | 0.00 | 0.00 | 0.00 | 70 | 1015.9 |
| 20260902211020 | 76 | 244 | 5.0 | 8.0 | 0.00 | 0.00 | 0.00 | 66 | 1015.9 |
| 20260902210514 | 76 | 275 | 6.0 | 9.0 | 0.00 | 0.00 | 0.00 | 69 | 1016.2 |
| 20260902210014 | 76 | 242 | 5.0 | 9.0 | 0.00 | 0.00 | 0.00 | 67 | 1015.9 |
| 20260902205508 | 76 | 234 | 9.0 | 11.0 | 0.00 | 0.00 | 0.00 | 68 | 1016.2 |
| 20260902205004 | 77 | 178 | 4.0 | 6.0 | 0.00 | 0.00 | 0.00 | 65 | 1015.9 |
| 20260902204503 | 76 | 261 | 8.0 | 10.0 | 0.00 | 0.00 | 0.00 | 67 | 1016.2 |
| 20260902203959 | 76 | 207 | 8.0 | 11.0 | 0.00 | 0.00 | 0.00 | 65 | 1015.9 |
| 20260902203454 | 77 | 252 | 9.0 | 13.0 | 0.00 | 0.00 | 0.00 | 65 | 1015.9 |
| 20260902202953 | 76 | 258 | 7.0 | 8.0 | 0.00 | 0.00 | 0.00 | 69 | 1015.9 |
| 20260902202449 | 76 | 227 | 5.0 | 7.0 | 0.00 | 0.00 | 0.00 | 70 | 1016.2 |
| 20260902201946 | 77 | 175 | 8.0 | 10.0 | 0.00 | 0.00 | 0.00 | 70 | 1016.2 |
| 20260902201440 | 77 | 204 | 7.0 | 9.0 | 0.00 | 0.00 | 0.00 | 71 | 1015.9 |
| 20260902200940 | 77 | 144 | 5.0 | 7.0 | 0.00 | 0.00 | 0.00 | 70 | 1016.2 |
| 20260902200435 | 78 | 258 | 7.0 | 9.0 | 0.00 | 0.00 | 0.00 | 70 | 1016.2 |
| 20260902195930 | 78 | 238 | 5.0 | 7.0 | 0.00 | 0.00 | 0.00 | 70 | 1016.2 |
| 20260902195426 | 77 | 246 | 8.0 | 10.0 | 0.00 | 0.00 | 0.00 | 70 | 1016.6 |
| 20260902194920 | 76 | 206 | 4.0 | 7.0 | 0.00 | 0.00 | 0.00 | 71 | 1016.2 |
| 20260902194420 | 77 | 232 | 7.0 | 9.0 | 0.00 | 0.00 | 0.00 | 70 | 1016.2 |
| 20260902193915 | 77 | 155 | 5.0 | 6.0 | 0.00 | 0.00 | 0.00 | 71 | 1016.2 |
| 20260902193411 | 77 | 244 | 4.0 | 5.0 | 0.00 | 0.00 | 0.00 | 70 | 1016.6 |
| 20260902192910 | 77 | 243 | 6.0 | 8.0 | 0.00 | 0.00 | 0.00 | 72 | 1016.6 |
| 20260902192409 | 76 | 222 | 2.0 | 3.0 | 0.00 | 0.00 | 0.00 | 71 | 1016.6 |
| 20260902191908 | 77 | 264 | 5.0 | 8.0 | 0.00 | 0.00 | 0.00 | 71 | 1016.6 |
| 20260902191404 | 77 | 211 | 4.0 | 5.0 | 0.00 | 0.00 | 0.00 | 72 | 1016.6 |
| 20260902190858 | 76 | 224 | 5.0 | 6.0 | 0.00 | 0.00 | 0.00 | 73 | 1016.6 |
| 20260902190353 | 76 | 248 | 4.0 | 5.0 | 0.00 | 0.00 | 0.00 | 73 | 1016.6 |
| 20260902185849 | 77 | 214 | 4.0 | 6.0 | 0.00 | 0.00 | 0.00 | 72 | 1016.9 |
| 20260902185345 | 76 | 227 | 4.0 | 7.0 | 0.00 | 0.00 | 0.00 | 71 | 1016.9 |
| 20260902184840 | 76 | 166 | 6.0 | 8.0 | 0.00 | 0.00 | 0.00 | 73 | 1016.9 |
| 20260902184335 | 77 | 221 | 8.0 | 11.0 | 0.00 | 0.00 | 0.00 | 70 | 1016.6 |
| 20260902183830 | 77 | 244 | 8.0 | 9.0 | 0.00 | 0.00 | 0.00 | 72 | 1016.6 |
| 20260902183327 | 77 | 251 | 4.0 | 5.0 | 0.00 | 0.00 | 0.00 | 71 | 1016.9 |
| 20260902182817 | 77 | 68 | 2.0 | 3.0 | 0.00 | 0.00 | 0.00 | 69 | 1016.9 |
| 20260902182313 | 77 | 117 | 3.0 | 3.0 | 0.00 | 0.00 | 0.00 | 68 | 1016.9 |
| 20260902181809 | 78 | 79 | 0.0 | 0.0 | 0.00 | 0.00 | 0.00 | 67 | 1016.6 |
| 20260902181310 | 78 | 141 | 0.0 | 0.0 | 0.00 | 0.00 | 0.00 | 68 | 1016.6 |
| 20260902180804 | 77 | 132 | 0.0 | 0.0 | 0.00 | 0.00 | 0.00 | 72 | 1016.6 |
| 20260902180300 | 77 | 260 | 0.0 | 0.0 | 0.00 | 0.00 | 0.00 | 70 | 1016.9 |
| 20260902175755 | 75 | 24 | 0.0 | 0.0 | 0.00 | 0.00 | 0.00 | 75 | 1016.6 |
| 20260902175251 | 77 | 296 | 0.0 | 0.0 | 0.00 | 0.00 | 0.00 | 72 | 1016.9 |
| 20260902174746 | 77 | 293 | 0.0 | 0.0 | 0.00 | 0.00 | 0.00 | 70 | 1016.9 |
| 20260902174242 | 78 | 101 | 0.0 | 0.0 | 0.00 | 0.00 | 0.00 | 68 | 1016.9 |
| 20260902173738 | 76 | 63 | 0.0 | 0.0 | 0.00 | 0.00 | 0.00 | 70 | 1016.9 |
| 20260902173237 | 77 | 130 | 0.0 | 0.0 | 0.00 | 0.00 | 0.00 | 71 | 1016.9 |
| 20260902172732 | 76 | 62 | 0.0 | 0.0 | 0.00 | 0.00 | 0.00 | 71 | 1016.9 |
| 20260902172231 | 75 | 60 | 0.0 | 0.0 | 0.00 | 0.00 | 0.00 | 73 | 1016.9 |
| 20260902171726 | 75 | 110 | 0.0 | 0.0 | 0.00 | 0.00 | 0.00 | 74 | 1016.9 |
| 20260902171221 | 75 | 168 | 0.0 | 0.0 | 0.00 | 0.00 | 0.00 | 73 | 1016.6 |
| 20260902170718 | 74 | 170 | 0.0 | 0.0 | 0.00 | 0.00 | 0.00 | 73 | 1016.6 |
| 20260902170213 | 75 | 119 | 0.0 | 0.0 | 0.00 | 0.00 | 0.00 | 73 | 1016.9 |
| 20260902165708 | 74 | 79 | 0.0 | 0.0 | 0.00 | 0.00 | 0.00 | 75 | 1016.6 |
| 20260902165203 | 73 | 332 | 0.0 | 0.0 | 0.00 | 0.00 | 0.00 | 76 | 1016.9 |
| 20260902164657 | 72 | 1 | 0.0 | 0.0 | 0.00 | 0.00 | 0.00 | 78 | 1016.6 |
| 20260902164156 | 72 | 73 | 0.0 | 0.0 | 0.00 | 0.00 | 0.00 | 80 | 1016.6 |
| 20260902163652 | 71 | 126 | 0.0 | 0.0 | 0.00 | 0.00 | 0.00 | 81 | 1016.6 |
| 20260902163151 | 70 | 93 | 0.0 | 0.0 | 0.00 | 0.00 | 0.00 | 82 | 1016.6 |
| 20260902162650 | 71 | 130 | 0.0 | 0.0 | 0.00 | 0.00 | 0.00 | 81 | 1016.9 |
| 20260902162144 | 73 | 122 | 0.0 | 0.0 | 0.00 | 0.00 | 0.00 | 78 | 1016.6 |
| 20260902161640 | 73 | 85 | 0.0 | 0.0 | 0.00 | 0.00 | 0.00 | 78 | 1016.6 |
| 20260902161136 | 74 | 105 | 0.0 | 0.0 | 0.00 | 0.00 | 0.00 | 77 | 1016.6 |
| 20260902160632 | 73 | 41 | 0.0 | 0.0 | 0.00 | 0.00 | 0.00 | 79 | 1016.6 |
| 20260902160127 | 72 | 41 | 0.0 | 0.0 | 0.00 | 0.00 | 0.00 | 81 | 1016.6 |
| 20260902155625 | 71 | 64 | 0.0 | 0.0 | 0.00 | 0.00 | 0.00 | 82 | 1016.6 |
| 20260902155124 | 71 | 110 | 0.0 | 0.0 | 0.00 | 0.00 | 0.00 | 82 | 1016.6 |
| 20260902154619 | 71 | 59 | 0.0 | 0.0 | 0.00 | 0.00 | 0.00 | 81 | 1016.6 |
| 20260902154114 | 71 | 66 | 0.0 | 0.0 | 0.00 | 0.00 | 0.00 | 82 | 1016.6 |
| 20260902153613 | 70 | 63 | 0.0 | 0.0 | 0.00 | 0.00 | 0.00 | 84 | 1016.6 |
| 20260902153108 | 70 | 80 | 0.0 | 0.0 | 0.00 | 0.00 | 0.00 | 84 | 1016.6 |
| 20260902152604 | 70 | 88 | 0.0 | 0.0 | 0.00 | 0.00 | 0.00 | 85 | 1016.6 |
| 20260902152059 | 69 | 65 | 0.0 | 0.0 | 0.00 | 0.00 | 0.00 | 86 | 1016.6 |
| 20260902151555 | 69 | 91 | 0.0 | 0.0 | 0.00 | 0.00 | 0.00 | 86 | 1016.6 |
| 20260902151054 | 69 | 49 | 0.0 | 0.0 | 0.00 | 0.00 | 0.00 | 87 | 1016.6 |
| 20260902150544 | 68 | 48 | 0.0 | 0.0 | 0.00 | 0.00 | 0.00 | 87 | 1016.6 |
| 20260902150040 | 67 | 48 | 0.0 | 0.0 | 0.00 | 0.00 | 0.00 | 90 | 1016.6 |
| 20260902145534 | 67 | 59 | 0.0 | 0.0 | 0.00 | 0.00 | 0.00 | 91 | 1016.6 |
| 20260902145028 | 66 | 60 | 0.0 | 0.0 | 0.00 | 0.00 | 0.00 | 93 | 1016.6 |
| 20260902144525 | 65 | 61 | 0.0 | 0.0 | 0.00 | 0.00 | 0.00 | 94 | 1016.6 |
| 20260902144020 | 65 | 63 | 0.0 | 0.0 | 0.00 | 0.00 | 0.00 | 95 | 1016.2 |
| 20260902143515 | 64 | 68 | 0.0 | 0.0 | 0.00 | 0.00 | 0.00 | 96 | 1016.6 |
| 20260902143010 | 63 | 68 | 0.0 | 0.0 | 0.00 | 0.00 | 0.00 | 96 | 1016.6 |
| 20260902142506 | 63 | 69 | 0.0 | 0.0 | 0.00 | 0.00 | 0.00 | 97 | 1016.6 |
| 20260902142001 | 63 | 68 | 0.0 | 0.0 | 0.00 | 0.00 | 0.00 | 97 | 1016.2 |
| 20260902141455 | 62 | 70 | 0.0 | 0.0 | 0.00 | 0.00 | 0.00 | 98 | 1016.2 |
| 20260902140949 | 61 | 68 | 0.0 | 0.0 | 0.00 | 0.00 | 0.00 | 98 | 1016.2 |
| 20260902140445 | 61 | 68 | 0.0 | 0.0 | 0.00 | 0.00 | 0.00 | 98 | 1016.6 |
| 20260902135939 | 60 | 68 | 0.0 | 0.0 | 0.00 | 0.00 | 0.00 | 98 | 1016.2 |
| 20260902135434 | 60 | 68 | 0.0 | 0.0 | 0.00 | 0.00 | 0.00 | 98 | 1016.2 |
| 20260902134933 | 60 | 69 | 0.0 | 0.0 | 0.00 | 0.00 | 0.00 | 98 | 1015.9 |
| 20260902134429 | 59 | 66 | 0.0 | 0.0 | 0.00 | 0.00 | 0.00 | 99 | 1016.2 |
| 20260902133924 | 59 | 66 | 0.0 | 0.0 | 0.00 | 0.00 | 0.00 | 98 | 1015.9 |
| 20260902133419 | 59 | 66 | 0.0 | 0.0 | 0.00 | 0.00 | 0.00 | 98 | 1015.9 |
| 20260902132914 | 59 | 68 | 0.0 | 0.0 | 0.00 | 0.00 | 0.00 | 98 | 1015.9 |
| 20260902132409 | 59 | 68 | 0.0 | 0.0 | 0.00 | 0.00 | 0.00 | 98 | 1015.9 |
| 20260902131904 | 59 | 68 | 0.0 | 0.0 | 0.00 | 0.00 | 0.00 | 98 | 1015.6 |
| 20260902131401 | 59 | 68 | 0.0 | 0.0 | 0.00 | 0.00 | 0.00 | 98 | 1015.6 |
| 20260902130859 | 59 | 68 | 0.0 | 0.0 | 0.00 | 0.00 | 0.00 | 98 | 1015.9 |
| 20260902130356 | 60 | 68 | 0.0 | 0.0 | 0.00 | 0.00 | 0.00 | 98 | 1015.6 |
| 20260902125850 | 59 | 68 | 0.0 | 0.0 | 0.00 | 0.00 | 0.00 | 98 | 1015.9 |
| 20260902125346 | 59 | 68 | 0.0 | 0.0 | 0.00 | 0.00 | 0.00 | 98 | 1015.6 |
| 20260902124842 | 60 | 68 | 0.0 | 0.0 | 0.00 | 0.00 | 0.00 | 97 | 1015.6 |
| 20260902124338 | 60 | 68 | 0.0 | 0.0 | 0.00 | 0.00 | 0.00 | 98 | 1015.6 |
| 20260902123833 | 60 | 68 | 0.0 | 0.0 | 0.00 | 0.00 | 0.00 | 97 | 1015.6 |
| 20260902123330 | 60 | 68 | 0.0 | 0.0 | 0.00 | 0.00 | 0.00 | 97 | 1015.9 |
| 20260902122828 | 60 | 68 | 0.0 | 0.0 | 0.00 | 0.00 | 0.00 | 97 | 1015.9 |
| 20260902122325 | 60 | 65 | 0.0 | 0.0 | 0.00 | 0.00 | 0.00 | 97 | 1015.9 |
| 20260902121824 | 60 | 68 | 0.0 | 0.0 | 0.00 | 0.00 | 0.00 | 97 | 1015.9 |
| 20260902121319 | 60 | 65 | 0.0 | 0.0 | 0.00 | 0.00 | 0.00 | 96 | 1015.9 |
| 20260902120815 | 60 | 65 | 0.0 | 0.0 | 0.00 | 0.00 | 0.00 | 96 | 1015.9 |
| 20260902120311 | 60 | 65 | 0.0 | 0.0 | 0.00 | 0.00 | 0.00 | 96 | 1015.9 |
| 20260902115805 | 60 | 65 | 0.0 | 0.0 | 0.00 | 0.00 | 0.00 | 96 | 1015.9 |
| 20260902115301 | 60 | 65 | 0.0 | 0.0 | 0.00 | 0.00 | 0.00 | 96 | 1016.2 |
| 20260902114757 | 60 | 65 | 0.0 | 0.0 | 0.00 | 0.00 | 0.00 | 96 | 1015.9 |
| 20260902114253 | 60 | 65 | 0.0 | 0.0 | 0.00 | 0.00 | 0.00 | 96 | 1015.6 |
| 20260902113747 | 60 | 65 | 0.0 | 0.0 | 0.00 | 0.00 | 0.00 | 96 | 1015.9 |
| 20260902113243 | 60 | 69 | 0.0 | 0.0 | 0.00 | 0.00 | 0.00 | 96 | 1015.9 |
| 20260902112743 | 60 | 65 | 0.0 | 0.0 | 0.00 | 0.00 | 0.00 | 95 | 1015.9 |
| 20260902112240 | 61 | 69 | 0.0 | 0.0 | 0.00 | 0.00 | 0.00 | 95 | 1015.9 |
| 20260902111735 | 60 | 65 | 0.0 | 0.0 | 0.00 | 0.00 | 0.00 | 95 | 1015.9 |
| 20260902111231 | 61 | 65 | 0.0 | 0.0 | 0.00 | 0.00 | 0.00 | 95 | 1015.9 |
| 20260902110727 | 61 | 65 | 0.0 | 0.0 | 0.00 | 0.00 | 0.00 | 95 | 1015.9 |
| 20260902110222 | 61 | 65 | 0.0 | 0.0 | 0.00 | 0.00 | 0.00 | 95 | 1015.9 |
| 20260902105721 | 61 | 65 | 0.0 | 0.0 | 0.00 | 0.00 | 0.00 | 95 | 1015.9 |
| 20260902105217 | 62 | 65 | 0.0 | 0.0 | 0.00 | 0.00 | 0.00 | 95 | 1015.9 |
| 20260902104712 | 62 | 65 | 0.0 | 0.0 | 0.00 | 0.00 | 0.00 | 95 | 1015.9 |
| 20260902104208 | 62 | 67 | 0.0 | 0.0 | 0.00 | 0.00 | 0.00 | 95 | 1015.9 |
| 20260902103707 | 62 | 67 | 0.0 | 0.0 | 0.00 | 0.00 | 0.00 | 95 | 1015.9 |
| 20260902103202 | 62 | 67 | 0.0 | 0.0 | 0.00 | 0.00 | 0.00 | 94 | 1015.9 |
| 20260902102658 | 62 | 67 | 0.0 | 0.0 | 0.00 | 0.00 | 0.00 | 94 | 1015.9 |
| 20260902102155 | 62 | 67 | 0.0 | 0.0 | 0.00 | 0.00 | 0.00 | 94 | 1015.9 |
| 20260902101651 | 62 | 67 | 0.0 | 0.0 | 0.00 | 0.00 | 0.00 | 94 | 1015.9 |
| 20260902101150 | 62 | 67 | 0.0 | 0.0 | 0.00 | 0.00 | 0.00 | 94 | 1015.9 |
| 20260902100645 | 62 | 67 | 0.0 | 0.0 | 0.00 | 0.00 | 0.00 | 94 | 1015.9 |
| 20260902100140 | 63 | 67 | 0.0 | 0.0 | 0.00 | 0.00 | 0.00 | 94 | 1015.9 |
| 20260902095638 | 62 | 70 | 0.0 | 0.0 | 0.00 | 0.00 | 0.00 | 94 | 1016.2 |
| 20260902095132 | 62 | 70 | 0.0 | 0.0 | 0.00 | 0.00 | 0.00 | 94 | 1016.6 |
| 20260902094627 | 62 | 69 | 0.0 | 0.0 | 0.00 | 0.00 | 0.00 | 93 | 1016.2 |
| 20260902094124 | 63 | 69 | 0.0 | 0.0 | 0.00 | 0.00 | 0.00 | 93 | 1015.9 |
| 20260902093623 | 63 | 70 | 0.0 | 0.0 | 0.00 | 0.00 | 0.00 | 93 | 1015.9 |
| 20260902093112 | 63 | 72 | 0.0 | 0.0 | 0.00 | 0.00 | 0.00 | 93 | 1016.2 |
| 20260902092612 | 63 | 72 | 0.0 | 0.0 | 0.00 | 0.00 | 0.00 | 92 | 1016.6 |
| 20260902092108 | 63 | 73 | 0.0 | 0.0 | 0.00 | 0.00 | 0.00 | 92 | 1016.2 |
| 20260902091603 | 63 | 75 | 0.0 | 0.0 | 0.00 | 0.00 | 0.00 | 92 | 1016.2 |
| 20260902091059 | 63 | 75 | 0.0 | 0.0 | 0.00 | 0.00 | 0.00 | 92 | 1016.2 |
| 20260902090555 | 64 | 78 | 0.0 | 0.0 | 0.00 | 0.00 | 0.00 | 92 | 1016.2 |
| 20260902090053 | 63 | 70 | 0.0 | 0.0 | 0.00 | 0.00 | 0.00 | 93 | 1016.2 |
| 20260902085548 | 63 | 69 | 0.0 | 0.0 | 0.00 | 0.00 | 0.00 | 93 | 1016.2 |
| 20260902085043 | 63 | 69 | 0.0 | 0.0 | 0.00 | 0.00 | 0.00 | 92 | 1016.2 |
| 20260902084539 | 63 | 69 | 0.0 | 0.0 | 0.00 | 0.00 | 0.00 | 92 | 1016.2 |
| 20260902084035 | 63 | 69 | 0.0 | 0.0 | 0.00 | 0.00 | 0.00 | 92 | 1016.2 |
| 20260902083525 | 64 | 65 | 0.0 | 0.0 | 0.00 | 0.00 | 0.00 | 92 | 1016.2 |
| 20260902083024 | 64 | 65 | 0.0 | 0.0 | 0.00 | 0.00 | 0.00 | 92 | 1016.2 |
| 20260902082520 | 64 | 69 | 0.0 | 0.0 | 0.00 | 0.00 | 0.00 | 92 | 1016.6 |
| 20260902082017 | 64 | 69 | 0.0 | 0.0 | 0.00 | 0.00 | 0.00 | 91 | 1016.6 |
| 20260902081513 | 64 | 67 | 0.0 | 0.0 | 0.00 | 0.00 | 0.00 | 91 | 1016.2 |
| 20260902081013 | 64 | 70 | 0.0 | 0.0 | 0.00 | 0.00 | 0.00 | 91 | 1016.2 |
| 20260902080509 | 64 | 70 | 0.0 | 0.0 | 0.00 | 0.00 | 0.00 | 91 | 1016.2 |
| 20260902080004 | 64 | 78 | 0.0 | 0.0 | 0.00 | 0.00 | 0.00 | 91 | 1016.2 |
| 20260902075459 | 64 | 81 | 0.0 | 0.0 | 0.00 | 0.00 | 0.00 | 91 | 1016.2 |
| 20260902074955 | 64 | 82 | 0.0 | 0.0 | 0.00 | 0.00 | 0.00 | 90 | 1016.2 |
| 20260902074450 | 64 | 83 | 0.0 | 0.0 | 0.00 | 0.00 | 0.00 | 90 | 1016.6 |
| 20260902073950 | 65 | 84 | 0.0 | 0.0 | 0.00 | 0.00 | 0.00 | 90 | 1016.2 |
| 20260902073446 | 65 | 86 | 0.0 | 0.0 | 0.00 | 0.00 | 0.00 | 90 | 1016.2 |
| 20260902072942 | 65 | 86 | 0.0 | 0.0 | 0.00 | 0.00 | 0.00 | 90 | 1015.9 |
| 20260902072438 | 64 | 84 | 0.0 | 0.0 | 0.00 | 0.00 | 0.00 | 90 | 1015.9 |
| 20260902071934 | 65 | 84 | 0.0 | 0.0 | 0.00 | 0.00 | 0.00 | 90 | 1015.9 |
| 20260902071433 | 65 | 84 | 0.0 | 0.0 | 0.00 | 0.00 | 0.00 | 90 | 1015.9 |
| 20260902070930 | 65 | 85 | 0.0 | 0.0 | 0.00 | 0.00 | 0.00 | 90 | 1015.9 |
| 20260902070425 | 65 | 85 | 0.0 | 0.0 | 0.00 | 0.00 | 0.00 | 89 | 1015.6 |
| 20260902065923 | 65 | 86 | 0.0 | 0.0 | 0.00 | 0.00 | 0.00 | 89 | 1015.6 |
| 20260902065419 | 65 | 89 | 0.0 | 0.0 | 0.00 | 0.00 | 0.00 | 88 | 1015.9 |
| 20260902064914 | 65 | 91 | 0.0 | 0.0 | 0.00 | 0.00 | 0.00 | 88 | 1015.6 |
| 20260902064410 | 66 | 98 | 0.0 | 0.0 | 0.00 | 0.00 | 0.00 | 88 | 1015.6 |
| 20260902063906 | 66 | 99 | 0.0 | 0.0 | 0.00 | 0.00 | 0.00 | 88 | 1015.9 |
| 20260902063405 | 66 | 100 | 0.0 | 0.0 | 0.00 | 0.00 | 0.00 | 87 | 1015.9 |
| 20260902062901 | 66 | 100 | 0.0 | 0.0 | 0.00 | 0.00 | 0.00 | 88 | 1015.9 |
| 20260902062359 | 66 | 98 | 0.0 | 0.0 | 0.00 | 0.00 | 0.00 | 87 | 1015.9 |
| 20260902061859 | 66 | 104 | 0.0 | 0.0 | 0.00 | 0.00 | 0.00 | 87 | 1015.9 |
| 20260902061354 | 66 | 95 | 0.0 | 0.0 | 0.00 | 0.00 | 0.00 | 87 | 1015.9 |
| 20260902060851 | 67 | 100 | 0.0 | 0.0 | 0.00 | 0.00 | 0.00 | 87 | 1015.6 |
| 20260902060346 | 67 | 100 | 0.0 | 0.0 | 0.00 | 0.00 | 0.00 | 87 | 1015.6 |
| 20260902055842 | 67 | 118 | 0.0 | 0.0 | 0.00 | 0.00 | 0.00 | 87 | 1015.9 |
| 20260902055338 | 67 | 88 | 0.0 | 0.0 | 0.00 | 0.00 | 0.00 | 87 | 1015.6 |
| 20260902054833 | 67 | 91 | 0.0 | 0.0 | 0.00 | 0.00 | 0.00 | 87 | 1015.6 |
| 20260902054329 | 67 | 95 | 0.0 | 0.0 | 0.00 | 0.00 | 0.00 | 86 | 1015.6 |
| 20260902053824 | 68 | 98 | 0.0 | 0.0 | 0.00 | 0.00 | 0.00 | 86 | 1015.6 |
| 20260902053319 | 68 | 103 | 0.0 | 0.0 | 0.00 | 0.00 | 0.00 | 86 | 1015.6 |
| 20260902052818 | 68 | 120 | 0.0 | 0.0 | 0.00 | 0.00 | 0.00 | 86 | 1015.6 |
| 20260902052313 | 68 | 168 | 0.0 | 0.0 | 0.00 | 0.00 | 0.00 | 85 | 1015.6 |
| 20260902051808 | 68 | 214 | 0.0 | 0.0 | 0.00 | 0.00 | 0.00 | 85 | 1015.6 |
| 20260902051308 | 68 | 176 | 0.0 | 0.0 | 0.00 | 0.00 | 0.00 | 85 | 1015.6 |
| 20260902050802 | 69 | 199 | 0.0 | 0.0 | 0.00 | 0.00 | 0.00 | 84 | 1015.6 |
| 20260902050257 | 69 | 220 | 0.0 | 0.0 | 0.00 | 0.00 | 0.00 | 84 | 1015.6 |
| 20260902045757 | 69 | 174 | 0.0 | 0.0 | 0.00 | 0.00 | 0.00 | 83 | 1015.6 |
| 20260902045253 | 69 | 239 | 2.0 | 6.0 | 0.00 | 0.00 | 0.00 | 82 | 1015.6 |
| 20260902044749 | 69 | 240 | 0.0 | 0.0 | 0.00 | 0.00 | 0.00 | 81 | 1015.6 |
| 20260902044244 | 69 | 246 | 0.0 | 0.0 | 0.00 | 0.00 | 0.00 | 80 | 1015.6 |
| 20260902043739 | 69 | 254 | 0.0 | 0.0 | 0.00 | 0.00 | 0.00 | 81 | 1015.6 |
| 20260902043235 | 69 | 237 | 0.0 | 0.0 | 0.00 | 0.00 | 0.00 | 82 | 1015.6 |
| 20260902042734 | 69 | 236 | 3.0 | 5.0 | 0.00 | 0.00 | 0.00 | 82 | 1015.2 |
| 20260902042229 | 69 | 254 | 0.0 | 0.0 | 0.00 | 0.00 | 0.00 | 81 | 1015.2 |
| 20260902041724 | 69 | 230 | 0.0 | 0.0 | 0.00 | 0.00 | 0.00 | 80 | 1015.2 |
| 20260902041218 | 69 | 219 | 0.0 | 0.0 | 0.00 | 0.00 | 0.00 | 80 | 1014.9 |
| 20260902040718 | 69 | 253 | 0.0 | 0.0 | 0.00 | 0.00 | 0.00 | 81 | 1014.9 |
| 20260902040214 | 69 | 236 | 0.0 | 0.0 | 0.00 | 0.00 | 0.00 | 81 | 1014.9 |
| 20260902035712 | 69 | 236 | 0.0 | 0.0 | 0.00 | 0.00 | 0.00 | 81 | 1014.9 |
| 20260902035208 | 68 | 211 | 0.0 | 0.0 | 0.00 | 0.00 | 0.00 | 81 | 1014.9 |
| 20260902034707 | 69 | 252 | 0.0 | 0.0 | 0.00 | 0.00 | 0.00 | 83 | 1014.6 |
| 20260902034206 | 69 | 213 | 0.0 | 0.0 | 0.00 | 0.00 | 0.00 | 83 | 1014.9 |
| 20260902033705 | 69 | 239 | 0.0 | 0.0 | 0.00 | 0.00 | 0.00 | 83 | 1014.6 |
| 20260902033201 | 69 | 271 | 0.0 | 0.0 | 0.00 | 0.00 | 0.00 | 83 | 1014.6 |
| 20260902032659 | 69 | 213 | 0.0 | 0.0 | 0.00 | 0.00 | 0.00 | 84 | 1014.2 |
| 20260902032154 | 69 | 239 | 0.0 | 0.0 | 0.00 | 0.00 | 0.00 | 83 | 1013.9 |
| 20260902031648 | 69 | 218 | 0.0 | 0.0 | 0.00 | 0.00 | 0.00 | 83 | 1014.6 |
| 20260902031144 | 69 | 220 | 0.0 | 0.0 | 0.00 | 0.00 | 0.00 | 83 | 1014.2 |
| 20260902030640 | 68 | 210 | 0.0 | 0.0 | 0.00 | 0.00 | 0.00 | 84 | 1014.6 |
| 20260902030139 | 68 | 256 | 0.0 | 0.0 | 0.00 | 0.00 | 0.00 | 85 | 1014.2 |
| 20260902025638 | 68 | 232 | 0.0 | 0.0 | 0.00 | 0.00 | 0.00 | 85 | 1014.2 |
| 20260902025134 | 69 | 222 | 0.0 | 0.0 | 0.00 | 0.00 | 0.00 | 86 | 1014.2 |
| 20260902024629 | 69 | 205 | 0.0 | 0.0 | 0.00 | 0.00 | 0.00 | 87 | 1014.2 |
| 20260902024130 | 69 | 196 | 0.0 | 0.0 | 0.00 | 0.00 | 0.00 | 87 | 1014.2 |
| 20260902023625 | 69 | 225 | 0.0 | 0.0 | 0.00 | 0.00 | 0.00 | 85 | 1014.2 |
| 20260902023120 | 69 | 239 | 0.0 | 1.0 | 0.00 | 0.00 | 0.00 | 85 | 1013.9 |
| 20260902022620 | 69 | 184 | 0.0 | 0.0 | 0.00 | 0.00 | 0.00 | 85 | 1013.9 |
| 20260902022116 | 69 | 207 | 0.0 | 0.0 | 0.00 | 0.00 | 0.00 | 84 | 1013.9 |
| 20260902021611 | 69 | 286 | 0.0 | 0.0 | 0.00 | 0.00 | 0.00 | 84 | 1013.9 |
| 20260902021106 | 70 | 241 | 0.0 | 2.0 | 0.00 | 0.00 | 0.00 | 83 | 1014.2 |
| 20260902020602 | 70 | 213 | 3.0 | 3.0 | 0.00 | 0.00 | 0.00 | 83 | 1014.2 |
| 20260902020057 | 70 | 213 | 4.0 | 5.0 | 0.00 | 0.00 | 0.00 | 83 | 1014.2 |
| 20260902015553 | 70 | 200 | 6.0 | 7.0 | 0.00 | 0.00 | 0.00 | 82 | 1014.2 |
| 20260902015048 | 70 | 246 | 8.0 | 11.0 | 0.00 | 0.00 | 0.00 | 82 | 1014.2 |
| 20260902014544 | 70 | 243 | 5.0 | 7.0 | 0.00 | 0.00 | 0.00 | 82 | 1014.2 |
| 20260902014039 | 71 | 224 | 3.0 | 3.0 | 0.00 | 0.00 | 0.00 | 81 | 1013.9 |
| 20260902013539 | 71 | 262 | 6.0 | 9.0 | 0.00 | 0.00 | 0.00 | 82 | 1014.2 |
| 20260902013035 | 71 | 234 | 6.0 | 7.0 | 0.00 | 0.00 | 0.00 | 82 | 1013.9 |
| 20260902012530 | 72 | 224 | 6.0 | 7.0 | 0.00 | 0.00 | 0.00 | 81 | 1013.9 |
| 20260902012025 | 72 | 207 | 4.0 | 6.0 | 0.00 | 0.00 | 0.00 | 81 | 1014.2 |
| 20260902011520 | 72 | 220 | 5.0 | 6.0 | 0.00 | 0.00 | 0.00 | 81 | 1014.2 |
| 20260902011015 | 72 | 195 | 5.0 | 7.0 | 0.00 | 0.00 | 0.00 | 81 | 1014.2 |
| 20260902010514 | 72 | 198 | 5.0 | 6.0 | 0.00 | 0.00 | 0.00 | 81 | 1014.2 |
| 20260902010010 | 72 | 273 | 4.0 | 6.0 | 0.00 | 0.00 | 0.00 | 80 | 1014.2 |
| 20260902005508 | 72 | 246 | 5.0 | 7.0 | 0.00 | 0.00 | 0.00 | 80 | 1014.6 |
| 20260902005005 | 72 | 205 | 6.0 | 8.0 | 0.00 | 0.00 | 0.00 | 80 | 1014.2 |
| 20260902004504 | 72 | 190 | 8.0 | 9.0 | 0.00 | 0.00 | 0.00 | 80 | 1014.6 |
| 20260902003959 | 72 | 148 | 0.0 | 0.0 | 0.00 | 0.00 | 0.00 | 80 | 1014.6 |
| 20260902003454 | 72 | 268 | 11.0 | 16.0 | 0.00 | 0.00 | 0.00 | 81 | 1014.2 |
| 20260902002949 | 72 | 233 | 8.0 | 10.0 | 0.00 | 0.00 | 0.00 | 80 | 1014.6 |
| 20260902002445 | 72 | 265 | 12.0 | 14.0 | 0.00 | 0.00 | 0.00 | 80 | 1014.2 |
| 20260902001944 | 72 | 248 | 7.0 | 11.0 | 0.00 | 0.00 | 0.00 | 80 | 1014.6 |
| 20260902001439 | 73 | 235 | 8.0 | 11.0 | 0.00 | 0.00 | 0.00 | 80 | 1014.2 |
| 20260902000934 | 72 | 225 | 5.0 | 10.0 | 0.00 | 0.00 | 0.00 | 80 | 1014.6 |
| 20260902000429 | 73 | 205 | 7.0 | 11.0 | 0.00 | 0.00 | 0.00 | 80 | 1014.2 |
| 20260901235924 | 73 | 248 | 12.0 | 15.0 | 0.00 | 0.00 | 0.00 | 79 | 1014.6 |
| 20260901235419 | 73 | 259 | 8.0 | 9.0 | 0.00 | 0.00 | 0.00 | 79 | 1014.6 |
| 20260901234914 | 73 | 252 | 7.0 | 8.0 | 0.00 | 0.00 | 0.00 | 79 | 1014.6 |
| 20260901234408 | 74 | 231 | 11.0 | 13.0 | 0.00 | 0.00 | 0.00 | 78 | 1014.2 |
| 20260901233902 | 74 | 231 | 4.0 | 6.0 | 0.00 | 0.00 | 0.00 | 78 | 1014.6 |
| 20260901233358 | 73 | 227 | 6.0 | 9.0 | 0.00 | 0.00 | 0.00 | 80 | 1014.6 |